Regional Weather Roundup
Issued by NWS

Home | Current Version | Previous Version | Text Only | Print | Product List | Glossary Off
Versions: 1 2 3 4 5 6 7 8 9 10 11 12 13 14 15 16 17 18 19 20 21 22 23 24 25 26 27 28 29 30 31 32 33 34 35 36 37 38 39 40 41 42 43 44 45 46 47 48 49 50

000
ASUS43 KMPX 251101
RWRMN
WEATHER ROUNDUP FOR MINNESOTA
NATIONAL WEATHER SERVICE TWIN CITIES/CHANHASSEN MN
600 AM CDT SAT MAR 25 2017


NOTE: "FAIR" INDICATES FEW OR NO CLOUDS BELOW 12,000 FEET WITH NO
SIGNIFICANT WEATHER AND/OR OBSTRUCTIONS TO VISIBILITY. N/A MEANS
CURRENT SKY AND/OR WEATHER CONDITIONS ARE NOT AVAILABLE.

MNZ060>063-068>070-251200-
   Twin Cities Metro

CITY           SKY/WX    TMP DP  RH WIND       PRES   REMARKS
TWIN CITIES    CLOUDY    37  30  75 NE12      30.16S
ST PAUL        CLOUDY    37  32  82 NE10      30.18S
CRYSTAL        CLOUDY    37  29  72 NE8       30.17R
BLAINE         CLOUDY    37  34  87 NE8       30.17S
LAKEVILLE      CLOUDY    36  32  87 NE12      30.14R
EDEN PRAIRIE   CLOUDY    38  31  76 NE10G18   30.15R
SOUTH ST PAUL  CLOUDY    37  32  79 NE7       30.17R
LAKE ELMO      CLOUDY    36  32  87 NE9       30.18S
$$
MNZ001>005-007-008-013>017-022>024-027-028-251200-
   Northwest Minnesota

CITY           SKY/WX    TMP DP  RH WIND       PRES   REMARKS
BEMIDJI        CLOUDY    33  30  88 SE8       30.19S WCI  26
HALLOCK        CLEAR     30  28  93 SE8       30.17S WCI  23
ROSEAU         CLOUDY    28  25  86 SE6       30.20S WCI  22
WARROAD        CLEAR     27  25  93 CALM      30.22S
THIEF RVR FALL CLEAR    N/A N/A N/A SE8       30.20R
CROOKSTON      CLEAR     30  28  93 SE7       30.20S WCI  23
FOSSTON        CLEAR     25  23  93 CALM      30.19S
DETROIT LAKES  CLOUDY    36  32  87 SE9       30.17F
MOORHEAD       CLEAR     28  27  93 E3        30.18S
PARK RAPIDS    CLOUDY    36  26  67 E9        30.18S
MAHNOMEN       PTSUNNY   30  27  90 SE5       30.18R WCI  25
$$
MNZ006-009>011-018-025>026-251200-
   North Central Minnesota

CITY           SKY/WX    TMP DP  RH WIND       PRES   REMARKS
BAUDETTE       CLEAR     27  24  89 E7        30.22R WCI  19
FLAG ISLAND    CLEAR     28  25  86 E6        30.22R WCI  22
INTL FALLS     CLOUDY    33  29  85 E7        30.23F WCI  27
WASKISH        CLOUDY    30  28  93 CALM      30.22R
BIG FORK       CLOUDY    34  30  86 SE3       30.23S
LONGVILLE      CLOUDY    34  30  86 E3        30.21S
GRAND RAPIDS   CLOUDY    32  29  88 SE7       30.25R WCI  26
CRANE LAKE     CLOUDY    30  28  93 CALM      30.29R
ORR            CLOUDY    32  27  80 CALM      30.23S
COOK           CLOUDY    32  28  86 E3        30.26R
WALKER         CLOUDY    32  31  93 E5        30.20S WCI  28
$$
MNZ012-019>021-037-251200-
   Northeast Minnesota

CITY           SKY/WX    TMP DP  RH WIND       PRES   REMARKS
DULUTH         CLOUDY    32  29  88 E12       30.23R WCI  23
ELY            CLOUDY    30  27  86 E3        30.26S
HIBBING        CLOUDY    31  28  89 E7        30.24S WCI  24
EVELETH        CLOUDY    32  28  85 E5        30.26R WCI  28
DULUTH HARBOR  CLOUDY    36  30  80 E17       30.27R
TWO HARBORS    CLOUDY    36  30  80 E10       30.25S
SILVER BAY     CLOUDY    34  30  86 E7        30.26F WCI  28
GRAND MARAIS     N/A     32  23  69 NE15G23   30.34R WCI  22
G MARAIS ARPRT CLOUDY    25  18  74 E5        30.28R WCI  19
$$
MNZ029>031-032-039>041-046>048-054>057-064-251200-
   West Central Minnesota

CITY           SKY/WX    TMP DP  RH WIND       PRES   REMARKS
FERGUS FALLS   CLEAR     32  28  86 SE3       30.21S
WHEATON        CLOUDY    30  28  93 E7        30.18F WCI  23
MORRIS         CLOUDY    34  30  86 E10       30.16R WCI  26
ALEXANDRIA     CLOUDY    32  29  88 E15G22    30.17S WCI  22
ELBOW LAKE     CLOUDY    32  31  94 SE13      30.17S WCI  22
WADENA         CLOUDY    34  28  80 E10       30.17F WCI  26
GLENWOOD       CLOUDY    32  30  93 E17       30.16S WCI  21
APPLETON       CLOUDY    36  30  80 E10       30.16R
BENSON         CLOUDY    37  30  75 SE8G18    30.18R
ORTONVILLE     CLOUDY    34  30  86 E8        30.16R WCI  27
MADISON        CLOUDY    37  36  93 E9        30.16R
WILLMAR        CLOUDY    36  32  87 E10       30.17S
$$
MNZ033>034-036-042>043-049>051-058-059-251200-
   Central Minnesota

CITY           SKY/WX    TMP DP  RH WIND       PRES   REMARKS
ST CLOUD       CLOUDY    34  30  85 E8        30.18S WCI  27
SAUK CENTRE    CLOUDY    32  30  90 E15       30.17S WCI  22
PAYNESVILLE      N/A     34  31  88 E12G17    30.17S WCI  25
AITKIN         CLOUDY    36  28  75 NE6       30.21R
PINE RIVER     CLOUDY    34  28  80 E7        30.24S WCI  28
BRAINERD       CLOUDY    33  29  85 E5        30.21R WCI  29
STAPLES        CLOUDY    34  28  80 E9        30.19S WCI  26
LONG PRAIRIE   CLOUDY    32  30  93 NE9       30.18S WCI  24
LITTLE FALLS   CLOUDY    32  28  86 E8        30.20S WCI  25
LITCHFIELD     CLOUDY    36  32  87 E10       30.17R
BUFFALO        CLOUDY    35  31  85 NE8       30.18S WCI  28
MAPLE LAKE     CLOUDY    36  32  87 NE8       30.19R
HUTCHINSON     CLOUDY    36  33  90 NE10      30.16S
$$
MNZ037-044-045-052-053-251200-
   East Central Minnesota

CITY           SKY/WX    TMP DP  RH WIND       PRES   REMARKS
PRINCETON      CLOUDY    36  30  80 NE6       30.19S
MORA           CLOUDY    34  28  80 E7        30.22S WCI  28
CAMBRIDGE      CLOUDY    37  28  70 NE6       30.18S
RUSH CITY      CLOUDY    35  29  80 E6        30.21S WCI  30
MOOSE LAKE     CLOUDY    32  30  93 NE5       30.21S WCI  27
HINCKLEY       CLOUDY    32  30  93 CALM      30.22R
CLOQUET        CLOUDY    32  28  86 E9        30.23R WCI  24
MCGREGOR       CLOUDY    32  32 100 NE5       30.23R WCI  27
$$
MNZ071>073-080-081-089-090-097-098-251200-
   Southwest Minnesota

CITY           SKY/WX    TMP DP  RH WIND       PRES   REMARKS
MONTEVIDEO     CLOUDY    36  34  93 SE12      30.18R
GRANITE FALLS  CLOUDY    37  33  87 NE6       30.17S
CANBY          CLOUDY    35  33  92 CALM      30.16S
MARSHALL       CLOUDY    34  32  92 E12       30.15S WCI  25
REDWOOD FALLS  CLOUDY    37  32  82 NE7       30.15R
OLIVIA         CLOUDY    36  32  87 NE9       30.15R
PIPESTONE      FOG       34  30  86 E9        30.10R VSB 1/2 WCI  26
WINDOM         CLOUDY    36  34  93 N9        30.10S
WORTHINGTON    CLOUDY    34  33  96 NE17      30.09R FOG     WCI  23
JACKSON        CLOUDY    36  34  93 NE16G22   30.09R FOG
TRACY          CLOUDY    35  34  96 NE12      30.14R FOG     WCI  27
SLAYTON        CLOUDY    33  33  99 NE9       30.12R FOG     WCI  25
$$
MNZ065>067-074>077-082>085-091>093-251200-
   South Central Minnesota

CITY           SKY/WX    TMP DP  RH WIND       PRES   REMARKS
MANKATO        CLOUDY    37  33  85 NE16      30.12R
NEW ULM        CLOUDY    36  32  87 NE9       30.13R
ST JAMES       CLOUDY    36  34  93 NE8       30.13R
FAIRMONT       CLOUDY    37  34  89 NE15      30.09R
GLENCOE        CLOUDY    37  35  93 NE5       30.15R
FARIBAULT      CLOUDY    37  34  87 NE13G18   30.12S
OWATONNA       CLOUDY    37  34  87 NE13      30.11R
WASECA         CLOUDY    36  34  93 NE14      30.11R
ALBERT LEA     CLOUDY    36  36 100 NE16      30.06F FOG
$$
MNZ078>079-086>088-094>096-251200-
   Southeast Minnesota

CITY           SKY/WX    TMP DP  RH WIND       PRES   REMARKS
ROCHESTER      CLOUDY    36  35  96 NE17      30.07F
RED WING       CLOUDY    39  30  70 E12G17    30.15R
STANTON        CLOUDY    38  33  84 NE9       30.13R
DODGE CENTER   CLOUDY    36  34  93 NE20      30.09R
WINONA         CLOUDY    37  34  87 E9        30.14S
AUSTIN         CLOUDY    36  34  93 NE15      30.06S FOG
PRESTON        CLOUDY    35  33  92 NE13G21   30.07S WCI  27
$$
ABBREVIATIONS USED IN REMARKS
   TC - TEMPERATURES IN CELSIUS
  WCI - WIND CHILL INDEX
   HX - HEAT INDEX
  VSB - VISIBILITY
$$



USA.gov is the U.S. government's official web portal to all federal, state and local government web resources and services.